Home > Weather > Homburg (Saar) > Past weeks

Flag for Germany Past Weather in Homburg (Saar), Saarland, Germany — Yesterday and Last 2 Weeks

Now
68 °F

Scattered clouds.


Feels Like: 68 °F
Forecast: 45 / 72 °F
Wind: 10 mph from West

Location: Saarbruecken / Ensheim

Current Time: Jul 31, 2016 at 11:48:42 AM

Latest Report: Jul 31, 2016 at 11:20 AM


Visibility: N/A

Pressure: 29.95 "Hg

Humidity: 69%

Dew Point: 57 °F

Location of Homburg (Saar)Location

Past Weather in Homburg (Saar) — Graph

°F

Homburg (Saar) Temperature Yesterday

Maximum temperature yesterday: 77 °F (at 3:50 PM)
Minimum temperature yesterday: 61 °F (at 3:50 AM)
Average temperature yesterday: 69 °F

High & Low Weather Summary for the Past Weeks

 TemperatureHumidityPressure
High90 °F (Jul 20, 2:50 PM)100% (Jul 21, 3:20 AM)30.33 "Hg (Jul 21, 3:20 AM)
Low57 °F (Jul 27, 6:20 AM)31% (Jul 20, 5:50 PM)29.92 "Hg (Jul 30, 5:50 PM)
Average70 °F75%30.08 "Hg
* Reported Jul 16 10:20 AM — Jul 31 10:20 AM, Homburg (Saar), Weather by CustomWeather, © 2016

Note: Actual official high and low records may vary slightly from our data, if they occured in-between our weather recording intervals... More about our weather records

Advertising

Homburg (Saar) Weather History for the Previous 24 Hours

Scroll right to see more
 ConditionsComfort  
Time TempWeatherWind HumidityBarometerVisibility
10:20 AM
Sun, Jul 31
68 °FScattered clouds.9 mph73%29.95 "HgN/A
9:50 AM66 °FScattered clouds.7 mph78%29.95 "HgN/A
9:20 AM63 °FPartly sunny.6 mph88%29.95 "HgN/A
8:50 AM63 °FPartly sunny.5 mph88%29.95 "HgN/A
8:20 AM63 °FBroken clouds.5 mph88%29.95 "HgN/A
7:50 AM63 °FBroken clouds.5 mph83%29.95 "HgN/A
7:20 AM61 °FPartly sunny.7 mph94%29.92 "HgN/A
6:50 AM63 °FPartly cloudy.8 mph88%29.92 "HgN/A
6:20 AM63 °FPartly cloudy.6 mph88%29.92 "HgN/A
5:50 AM63 °FPassing clouds.1 mph88%29.92 "HgN/A
5:20 AM63 °FPassing clouds.6 mph88%29.92 "HgN/A
4:50 AM63 °FPassing clouds.6 mph88%29.92 "HgN/A
4:20 AM63 °FPartly cloudy.5 mph88%29.92 "HgN/A
3:50 AM63 °FClear.5 mph94%29.92 "Hg10 mi
3:20 AM63 °FClear.7 mph94%29.92 "Hg10 mi
2:50 AM63 °FPassing clouds.5 mph94%29.92 "HgN/A
2:20 AM63 °FPassing clouds.3 mph94%29.92 "HgN/A
1:50 AM64 °FPassing clouds.1 mph88%29.92 "HgN/A
1:20 AM64 °FPassing clouds.3 mph83%29.92 "HgN/A
12:50 AM64 °FPassing clouds.No wind83%29.92 "HgN/A
12:20 AM64 °FPassing clouds.No wind88%29.92 "HgN/A
11:50 PM
Sat, Jul 30
64 °FPassing clouds.No wind83%29.92 "HgN/A
11:20 PM64 °FPassing clouds.No wind83%29.92 "HgN/A
10:50 PM66 °FPartly cloudy.No wind78%29.92 "HgN/A
10:20 PM66 °FPartly cloudy.No wind78%29.92 "HgN/A
9:50 PM68 °FBroken clouds.No wind73%29.92 "HgN/A
9:20 PM68 °FBroken clouds.No wind73%29.92 "HgN/A
8:50 PM70 °FBroken clouds.3 mph73%29.92 "HgN/A
8:20 PM72 °FBroken clouds.6 mph65%29.92 "HgN/A
7:50 PM73 °FBroken clouds.9 mph61%29.92 "HgN/A
7:20 PM75 °FScattered clouds.7 mph61%29.92 "HgN/A
6:50 PM75 °FScattered clouds.9 mph61%29.92 "HgN/A
6:20 PM77 °FScattered clouds.9 mph61%29.92 "HgN/A
5:50 PM77 °FSunny.9 mph57%29.92 "Hg10 mi
5:20 PM77 °FPassing clouds.10 mph57%29.95 "HgN/A
4:50 PM77 °FPassing clouds.10 mph57%29.95 "HgN/A
4:20 PM77 °FSunny.12 mph65%29.95 "Hg10 mi
3:50 PM77 °FSunny.13 mph61%29.95 "Hg10 mi
3:20 PM73 °FBroken clouds.12 mph65%29.95 "HgN/A
2:50 PM75 °FBroken clouds.9 mph65%29.95 "HgN/A
2:20 PM73 °FBroken clouds.9 mph69%29.95 "HgN/A
1:50 PM75 °FBroken clouds.10 mph65%29.95 "HgN/A
1:20 PM73 °FPartly sunny.9 mph69%29.95 "HgN/A
12:50 PM73 °FPartly sunny.12 mph65%29.95 "HgN/A
12:20 PM73 °FBroken clouds.7 mph69%29.98 "HgN/A
11:50 AM72 °FScattered clouds.8 mph69%29.98 "HgN/A
11:20 AM72 °FScattered clouds.7 mph73%29.95 "HgN/A
Weather by CustomWeather, © 2016

See weather overviewHow to use our weather pages